| time (UTC) | temp C | wind direction | speed KPH | gust KPH | rain 1hr cm | rain 24hr cm | rain mn cm | humidity % | barometer mb |
| 20260504031001 | 7 | 52 | 0.0 | 3.2 | 0.00 | 0.00 | 0.00 | 61 | 1014.4 |
| 20260504030500 | 7 | 68 | 1.6 | 3.2 | 0.00 | 0.00 | 0.00 | 61 | 1014.3 |
| 20260504030006 | 7 | 53 | 0.0 | 3.2 | 0.00 | 0.00 | 0.00 | 62 | 1014.6 |
| 20260504025500 | 6 | 88 | 0.0 | 1.6 | 0.00 | 0.00 | 0.00 | 62 | 1014.2 |
| 20260504025001 | 6 | 116 | 1.6 | 3.2 | 0.00 | 0.00 | 0.00 | 62 | 1014.5 |
| 20260504024502 | 6 | 73 | 1.6 | 1.6 | 0.00 | 0.00 | 0.00 | 62 | 1014.7 |
| 20260504024000 | 6 | 8 | 0.0 | 1.6 | 0.00 | 0.00 | 0.00 | 61 | 1014.6 |
| 20260504023501 | 7 | 282 | 0.0 | 1.6 | 0.00 | 0.00 | 0.00 | 58 | 1014.6 |
| 20260504023005 | 7 | 119 | 0.0 | 1.6 | 0.00 | 0.00 | 0.00 | 58 | 1014.7 |
| 20260504022511 | 7 | 113 | 0.0 | 1.6 | 0.00 | 0.00 | 0.00 | 57 | 1014.8 |
| 20260504022001 | 7 | 67 | 0.0 | 1.6 | 0.00 | 0.00 | 0.00 | 57 | 1014.6 |
| 20260504021500 | 7 | 89 | 0.0 | 1.6 | 0.00 | 0.00 | 0.00 | 56 | 1014.7 |
| 20260504021001 | 8 | 65 | 0.0 | 3.2 | 0.00 | 0.00 | 0.00 | 56 | 1014.7 |
| 20260504020506 | 8 | 89 | 0.0 | 1.6 | 0.00 | 0.00 | 0.00 | 56 | 1014.6 |
| 20260504020001 | 8 | 157 | 0.0 | 3.2 | 0.00 | 0.00 | 0.00 | 56 | 1014.6 |
| 20260504015516 | 8 | 89 | 0.0 | 1.6 | 0.00 | 0.00 | 0.00 | 55 | 1014.9 |
| 20260504015001 | 8 | 106 | 0.0 | 1.6 | 0.00 | 0.00 | 0.00 | 54 | 1014.7 |
| 20260504014501 | 9 | 69 | 0.0 | 3.2 | 0.00 | 0.00 | 0.00 | 53 | 1014.5 |
| 20260504014001 | 9 | 145 | 0.0 | 1.6 | 0.00 | 0.00 | 0.00 | 53 | 1014.5 |
| 20260504013500 | 10 | 113 | 0.0 | 0.0 | 0.00 | 0.00 | 0.00 | 51 | 1014.3 |
| 20260504013001 | 10 | 142 | 0.0 | 1.6 | 0.00 | 0.00 | 0.00 | 50 | 1014.4 |
| 20260504012500 | 10 | 214 | 0.0 | 3.2 | 0.00 | 0.00 | 0.00 | 49 | 1014.5 |
| 20260504012001 | 10 | 274 | 1.6 | 3.2 | 0.00 | 0.00 | 0.00 | 50 | 1014.3 |
| 20260504011500 | 10 | 166 | 0.0 | 3.2 | 0.00 | 0.00 | 0.00 | 48 | 1014.5 |
| 20260504011001 | 11 | 39 | 0.0 | 3.2 | 0.00 | 0.00 | 0.00 | 47 | 1014.6 |
| 20260504010500 | 11 | 206 | 6.4 | 8.0 | 0.00 | 0.00 | 0.00 | 45 | 1014.6 |
| 20260504010011 | 11 | 252 | 4.8 | 6.4 | 0.00 | 0.00 | 0.00 | 45 | 1014.4 |
| 20260504005501 | 11 | 235 | 3.2 | 8.0 | 0.00 | 0.00 | 0.00 | 45 | 1014.6 |
| 20260504005000 | 11 | 224 | 3.2 | 6.4 | 0.00 | 0.00 | 0.00 | 44 | 1014.5 |
| 20260504004500 | 12 | 222 | 1.6 | 6.4 | 0.00 | 0.00 | 0.00 | 44 | 1014.4 |
| 20260504004016 | 12 | 249 | 4.8 | 12.9 | 0.00 | 0.00 | 0.00 | 43 | 1014.4 |
| 20260504003505 | 12 | 228 | 6.4 | 14.5 | 0.00 | 0.00 | 0.00 | 43 | 1014.4 |
| 20260504003001 | 12 | 218 | 4.8 | 11.3 | 0.00 | 0.00 | 0.00 | 43 | 1014.4 |
| 20260504002500 | 12 | 264 | 6.4 | 16.1 | 0.00 | 0.00 | 0.00 | 42 | 1014.4 |
| 20260504002001 | 12 | 227 | 17.7 | 19.3 | 0.00 | 0.00 | 0.00 | 42 | 1014.6 |
| 20260504001500 | 12 | 227 | 4.8 | 11.3 | 0.00 | 0.00 | 0.00 | 42 | 1014.3 |
| 20260504001001 | 12 | 223 | 6.4 | 9.7 | 0.00 | 0.00 | 0.00 | 42 | 1014.2 |
| 20260504000500 | 12 | 239 | 8.0 | 11.3 | 0.00 | 0.00 | 0.00 | 41 | 1014.4 |
| 20260504000001 | 12 | 239 | 14.5 | 20.9 | 0.00 | 0.00 | 0.00 | 40 | 1014.2 |
| 20260503235500 | 12 | 233 | 11.3 | 19.3 | 0.00 | 0.00 | 0.00 | 41 | 1014.2 |
| 20260503235001 | 12 | 216 | 9.7 | 11.3 | 0.00 | 0.00 | 0.00 | 41 | 1014.3 |
| 20260503234501 | 12 | 226 | 9.7 | 14.5 | 0.00 | 0.00 | 0.00 | 41 | 1014.3 |
| 20260503234000 | 13 | 174 | 4.8 | 16.1 | 0.00 | 0.00 | 0.00 | 41 | 1014.4 |
| 20260503233501 | 13 | 205 | 14.5 | 20.9 | 0.00 | 0.00 | 0.00 | 40 | 1014.4 |
| 20260503233000 | 13 | 233 | 11.3 | 20.9 | 0.00 | 0.00 | 0.00 | 39 | 1014.3 |
| 20260503232501 | 13 | 261 | 9.7 | 14.5 | 0.00 | 0.00 | 0.00 | 40 | 1014.3 |
| 20260503232000 | 13 | 225 | 4.8 | 17.7 | 0.00 | 0.00 | 0.00 | 41 | 1014.2 |
| 20260503231511 | 13 | 264 | 4.8 | 17.7 | 0.00 | 0.00 | 0.00 | 39 | 1014.4 |
| 20260503231005 | 13 | 208 | 6.4 | 12.9 | 0.00 | 0.00 | 0.00 | 39 | 1014.3 |
| 20260503230501 | 13 | 248 | 12.9 | 17.7 | 0.00 | 0.00 | 0.00 | 38 | 1014.3 |
| 20260503230001 | 13 | 206 | 16.1 | 17.7 | 0.00 | 0.00 | 0.00 | 40 | 1014.4 |
| 20260503225501 | 13 | 235 | 17.7 | 19.3 | 0.00 | 0.00 | 0.00 | 38 | 1014.4 |
| 20260503225001 | 13 | 233 | 14.5 | 16.1 | 0.00 | 0.00 | 0.00 | 38 | 1014.5 |
| 20260503224500 | 13 | 161 | 3.2 | 9.7 | 0.00 | 0.00 | 0.00 | 42 | 1014.5 |
| 20260503224001 | 13 | 221 | 9.7 | 12.9 | 0.00 | 0.00 | 0.00 | 40 | 1014.4 |
| 20260503223506 | 13 | 252 | 11.3 | 16.1 | 0.00 | 0.00 | 0.00 | 38 | 1014.4 |
| 20260503223011 | 13 | 266 | 1.6 | 9.7 | 0.00 | 0.00 | 0.00 | 38 | 1014.5 |
| 20260503222500 | 13 | 214 | 6.4 | 17.7 | 0.00 | 0.00 | 0.00 | 38 | 1014.6 |
| 20260503222001 | 14 | 203 | 9.7 | 17.7 | 0.00 | 0.00 | 0.00 | 37 | 1014.3 |
| 20260503221500 | 13 | 225 | 8.0 | 27.4 | 0.00 | 0.00 | 0.00 | 37 | 1014.4 |
| 20260503221001 | 13 | 227 | 9.7 | 14.5 | 0.00 | 0.00 | 0.00 | 37 | 1014.6 |
| 20260503220501 | 15 | 262 | 11.3 | 24.1 | 0.00 | 0.00 | 0.00 | 35 | 1014.4 |
| 20260503220001 | 15 | 234 | 17.7 | 17.7 | 0.00 | 0.00 | 0.00 | 36 | 1014.6 |
| 20260503215500 | 15 | 209 | 3.2 | 19.3 | 0.00 | 0.00 | 0.00 | 40 | 1014.4 |
| 20260503215001 | 14 | 236 | 9.7 | 17.7 | 0.00 | 0.00 | 0.00 | 37 | 1014.5 |
| 20260503214506 | 14 | 239 | 17.7 | 30.6 | 0.00 | 0.00 | 0.00 | 36 | 1014.6 |
| 20260503214000 | 14 | 259 | 3.2 | 14.5 | 0.00 | 0.00 | 0.00 | 36 | 1014.4 |
| 20260503213501 | 15 | 207 | 6.4 | 14.5 | 0.00 | 0.00 | 0.00 | 37 | 1014.2 |
| 20260503213000 | 15 | 221 | 8.0 | 16.1 | 0.00 | 0.00 | 0.00 | 35 | 1014.3 |
| 20260503212501 | 15 | 265 | 12.9 | 17.7 | 0.00 | 0.00 | 0.00 | 36 | 1014.4 |
| 20260503212001 | 14 | 234 | 6.4 | 20.9 | 0.00 | 0.00 | 0.00 | 38 | 1014.2 |
| 20260503211501 | 13 | 227 | 4.8 | 19.3 | 0.00 | 0.00 | 0.00 | 38 | 1014.3 |
| 20260503211000 | 15 | 252 | 6.4 | 25.7 | 0.00 | 0.00 | 0.00 | 36 | 1014.4 |
| 20260503210501 | 15 | 282 | 6.4 | 20.9 | 0.00 | 0.00 | 0.00 | 37 | 1014.5 |
| 20260503210000 | 14 | 251 | 4.8 | 8.0 | 0.00 | 0.00 | 0.00 | 37 | 1014.4 |
| 20260503205506 | 13 | 213 | 9.7 | 20.9 | 0.00 | 0.00 | 0.00 | 38 | 1014.5 |
| 20260503205000 | 15 | 31 | 6.4 | 24.1 | 0.00 | 0.00 | 0.00 | 37 | 1014.5 |
| 20260503204506 | 13 | 229 | 4.8 | 14.5 | 0.00 | 0.00 | 0.00 | 37 | 1014.5 |
| 20260503204000 | 14 | 259 | 8.0 | 17.7 | 0.00 | 0.00 | 0.00 | 38 | 1014.7 |
| 20260503203501 | 15 | 277 | 11.3 | 17.7 | 0.00 | 0.00 | 0.00 | 37 | 1014.8 |
| 20260503203001 | 13 | 219 | 16.1 | 24.1 | 0.00 | 0.00 | 0.00 | 37 | 1014.7 |
| 20260503202511 | 13 | 236 | 9.7 | 27.4 | 0.00 | 0.00 | 0.00 | 37 | 1014.9 |
| 20260503202000 | 13 | 229 | 12.9 | 27.4 | 0.00 | 0.00 | 0.00 | 36 | 1015.0 |
| 20260503201506 | 15 | 240 | 29.0 | 35.4 | 0.00 | 0.00 | 0.00 | 35 | 1014.9 |
| 20260503201000 | 14 | 259 | 11.3 | 14.5 | 0.00 | 0.00 | 0.00 | 37 | 1014.7 |
| 20260503200501 | 13 | 248 | 12.9 | 24.1 | 0.00 | 0.00 | 0.00 | 38 | 1015.0 |
| 20260503200000 | 15 | 214 | 11.3 | 19.3 | 0.00 | 0.00 | 0.00 | 36 | 1015.2 |
| 20260503195501 | 13 | 248 | 9.7 | 17.7 | 0.00 | 0.00 | 0.00 | 39 | 1015.0 |
| 20260503195000 | 14 | 233 | 24.1 | 29.0 | 0.00 | 0.00 | 0.00 | 37 | 1015.5 |
| 20260503194506 | 14 | 244 | 20.9 | 27.4 | 0.00 | 0.00 | 0.00 | 37 | 1015.4 |
| 20260503194001 | 13 | 212 | 12.9 | 20.9 | 0.00 | 0.00 | 0.00 | 39 | 1015.4 |
| 20260503193501 | 13 | 277 | 4.8 | 22.5 | 0.00 | 0.00 | 0.00 | 39 | 1015.5 |
| 20260503193000 | 13 | 273 | 6.4 | 14.5 | 0.00 | 0.00 | 0.00 | 40 | 1015.5 |
| 20260503192511 | 13 | 260 | 4.8 | 22.5 | 0.00 | 0.00 | 0.00 | 39 | 1015.6 |
| 20260503192001 | 13 | 230 | 9.7 | 29.0 | 0.00 | 0.00 | 0.00 | 39 | 1015.7 |
| 20260503191501 | 13 | 230 | 12.9 | 20.9 | 0.00 | 0.00 | 0.00 | 39 | 1015.9 |
| 20260503191001 | 13 | 237 | 24.1 | 30.6 | 0.00 | 0.00 | 0.00 | 38 | 1015.8 |
| 20260503190501 | 13 | 245 | 14.5 | 17.7 | 0.00 | 0.00 | 0.00 | 42 | 1015.7 |
| 20260503190000 | 13 | 241 | 8.0 | 20.9 | 0.00 | 0.00 | 0.00 | 38 | 1015.8 |
| 20260503185501 | 13 | 277 | 11.3 | 25.7 | 0.00 | 0.00 | 0.00 | 39 | 1016.1 |
| 20260503185000 | 15 | 234 | 9.7 | 11.3 | 0.00 | 0.00 | 0.00 | 41 | 1016.2 |
| 20260503184501 | 13 | 267 | 6.4 | 20.9 | 0.00 | 0.00 | 0.00 | 40 | 1016.2 |
| 20260503184000 | 13 | 274 | 8.0 | 17.7 | 0.00 | 0.00 | 0.00 | 42 | 1016.0 |
| 20260503183501 | 12 | 230 | 14.5 | 27.4 | 0.00 | 0.00 | 0.00 | 39 | 1016.3 |
| 20260503183000 | 13 | 241 | 11.3 | 16.1 | 0.00 | 0.00 | 0.00 | 39 | 1016.1 |
| 20260503182511 | 13 | 237 | 9.7 | 20.9 | 0.00 | 0.00 | 0.00 | 39 | 1016.3 |
| 20260503182001 | 13 | 232 | 16.1 | 24.1 | 0.00 | 0.00 | 0.00 | 39 | 1016.3 |
| 20260503181501 | 12 | 311 | 3.2 | 9.7 | 0.00 | 0.00 | 0.00 | 41 | 1016.3 |
| 20260503181001 | 12 | 225 | 17.7 | 19.3 | 0.00 | 0.00 | 0.00 | 40 | 1016.4 |
| 20260503180501 | 13 | 221 | 14.5 | 27.4 | 0.00 | 0.00 | 0.00 | 40 | 1016.4 |
| 20260503180000 | 12 | 241 | 14.5 | 14.5 | 0.00 | 0.00 | 0.00 | 42 | 1016.6 |
| 20260503175501 | 12 | 29 | 9.7 | 12.9 | 0.00 | 0.00 | 0.00 | 40 | 1016.7 |
| 20260503175006 | 13 | 215 | 6.4 | 22.5 | 0.00 | 0.00 | 0.00 | 40 | 1016.7 |
| 20260503174500 | 12 | 244 | 19.3 | 20.9 | 0.00 | 0.00 | 0.00 | 40 | 1016.7 |
| 20260503174002 | 12 | 204 | 11.3 | 19.3 | 0.00 | 0.00 | 0.00 | 44 | 1016.9 |
| 20260503173501 | 12 | 261 | 8.0 | 12.9 | 0.00 | 0.00 | 0.00 | 41 | 1016.9 |
| 20260503173007 | 11 | 51 | 4.8 | 14.5 | 0.00 | 0.00 | 0.00 | 43 | 1016.9 |
| 20260503172500 | 12 | 261 | 11.3 | 16.1 | 0.00 | 0.00 | 0.00 | 41 | 1016.8 |
| 20260503172006 | 13 | 236 | 4.8 | 9.7 | 0.00 | 0.00 | 0.00 | 42 | 1016.9 |
| 20260503171500 | 11 | 273 | 0.0 | 12.9 | 0.00 | 0.00 | 0.00 | 39 | 1017.0 |
| 20260503171001 | 12 | 257 | 9.7 | 17.7 | 0.00 | 0.00 | 0.00 | 43 | 1017.0 |
| 20260503170506 | 11 | 235 | 12.9 | 33.8 | 0.00 | 0.00 | 0.00 | 41 | 1017.2 |
| 20260503151001 | 10 | 223 | 3.2 | 19.3 | 0.00 | 0.00 | 0.00 | 44 | 1017.7 |
| 20260503150500 | 10 | 257 | 12.9 | 20.9 | 0.00 | 0.00 | 0.00 | 43 | 1017.9 |
| 20260503131000 | 5 | 252 | 8.0 | 17.7 | 0.00 | 0.00 | 0.00 | 68 | 1018.3 |
| 20260503130501 | 5 | 226 | 9.7 | 17.7 | 0.00 | 0.00 | 0.00 | 70 | 1018.3 |
| 20260503110500 | -1 | 66 | 0.0 | 1.6 | 0.00 | 0.00 | 0.00 | 96 | 1017.4 |
| 20260503090501 | -1 | 98 | 0.0 | 1.6 | 0.00 | 0.00 | 0.00 | 96 | 1016.8 |
| 20260503081500 | -1 | 76 | 0.0 | 1.6 | 0.00 | 0.00 | 0.00 | 95 | 1016.8 |
| 20260503081000 | -1 | 113 | 0.0 | 1.6 | 0.00 | 0.00 | 0.00 | 95 | 1016.9 |
| 20260503080501 | -1 | 116 | 0.0 | 1.6 | 0.00 | 0.00 | 0.00 | 95 | 1017.0 |
| 20260503072501 | 0 | 133 | 0.0 | 1.6 | 0.00 | 0.00 | 0.00 | 95 | 1016.6 |
| 20260503072000 | 0 | 214 | 0.0 | 3.2 | 0.00 | 0.00 | 0.00 | 95 | 1016.8 |
| 20260503071500 | 0 | 192 | 0.0 | 1.6 | 0.00 | 0.00 | 0.00 | 95 | 1016.7 |
| 20260503071001 | 0 | 233 | 1.6 | 3.2 | 0.00 | 0.00 | 0.00 | 95 | 1016.7 |
| 20260503070500 | 0 | 124 | 0.0 | 0.0 | 0.00 | 0.00 | 0.00 | 95 | 1016.6 |
| 20260503055001 | 0 | 147 | 0.0 | 1.6 | 0.00 | 0.00 | 0.00 | 94 | 1017.0 |
| 20260503054500 | 0 | 218 | 0.0 | 1.6 | 0.00 | 0.00 | 0.00 | 94 | 1016.9 |
| 20260503054001 | 0 | 13 | 0.0 | 1.6 | 0.00 | 0.00 | 0.00 | 94 | 1016.9 |
| 20260503053511 | 0 | 52 | 0.0 | 1.6 | 0.00 | 0.00 | 0.00 | 94 | 1017.1 |
| 20260503053001 | 0 | 30 | 0.0 | 1.6 | 0.00 | 0.00 | 0.00 | 94 | 1017.1 |
| 20260503052500 | 0 | 65 | 0.0 | 3.2 | 0.00 | 0.00 | 0.00 | 94 | 1016.9 |
| 20260503052001 | 0 | 76 | 0.0 | 1.6 | 0.00 | 0.00 | 0.00 | 94 | 1017.0 |
| 20260503051506 | 0 | 64 | 0.0 | 0.0 | 0.00 | 0.00 | 0.00 | 94 | 1016.9 |
| 20260503051006 | 0 | 119 | 0.0 | 1.6 | 0.00 | 0.00 | 0.00 | 94 | 1017.3 |
| 20260503050500 | 0 | 82 | 0.0 | 3.2 | 0.00 | 0.00 | 0.00 | 94 | 1017.1 |
| 20260503050001 | 0 | 52 | 0.0 | 3.2 | 0.00 | 0.00 | 0.00 | 94 | 1017.2 |
| 20260503045500 | 0 | 214 | 1.6 | 3.2 | 0.00 | 0.00 | 0.00 | 94 | 1017.0 |
| 20260503045001 | 0 | 124 | 0.0 | 3.2 | 0.00 | 0.00 | 0.00 | 93 | 1017.2 |
| 20260503044500 | 0 | 288 | 0.0 | 1.6 | 0.00 | 0.00 | 0.00 | 93 | 1017.2 |
| 20260503044001 | 0 | 304 | 0.0 | 1.6 | 0.00 | 0.00 | 0.00 | 93 | 1017.1 |
| 20260503043501 | 0 | 229 | 0.0 | 0.0 | 0.00 | 0.00 | 0.00 | 93 | 1017.2 |
| 20260503043001 | 0 | 180 | 0.0 | 1.6 | 0.00 | 0.00 | 0.00 | 93 | 1017.3 |
| 20260503042505 | 0 | 212 | 0.0 | 1.6 | 0.00 | 0.00 | 0.00 | 92 | 1017.4 |
| 20260503042001 | 0 | 329 | 0.0 | 3.2 | 0.00 | 0.00 | 0.00 | 92 | 1017.1 |
| 20260503041500 | 0 | 60 | 0.0 | 1.6 | 0.00 | 0.00 | 0.00 | 92 | 1017.2 |
| 20260503041001 | 0 | 46 | 0.0 | 3.2 | 0.00 | 0.00 | 0.00 | 92 | 1017.2 |
| 20260503040501 | 0 | 54 | 1.6 | 3.2 | 0.00 | 0.00 | 0.00 | 91 | 1017.1 |
| 20260503040001 | 0 | 62 | 1.6 | 3.2 | 0.00 | 0.00 | 0.08 | 91 | 1017.2 |
| 20260503035501 | 0 | 20 | 0.0 | 3.2 | 0.00 | 0.00 | 0.08 | 91 | 1017.2 |
| 20260503035016 | 0 | 60 | 0.0 | 1.6 | 0.00 | 0.00 | 0.08 | 90 | 1017.2 |
| 20260503034500 | 0 | 89 | 0.0 | 1.6 | 0.00 | 0.00 | 0.08 | 90 | 1017.2 |
| 20260503034001 | 0 | 89 | 0.0 | 1.6 | 0.00 | 0.00 | 0.08 | 89 | 1017.2 |
| 20260503033501 | 0 | 72 | 0.0 | 3.2 | 0.00 | 0.00 | 0.08 | 89 | 1017.2 |
| 20260503033000 | 0 | 341 | 0.0 | 1.6 | 0.00 | 0.00 | 0.08 | 88 | 1017.1 |
| 20260503032501 | 1 | 66 | 0.0 | 1.6 | 0.00 | 0.00 | 0.08 | 88 | 1017.2 |
| 20260503032001 | 1 | 135 | 0.0 | 1.6 | 0.00 | 0.00 | 0.08 | 87 | 1017.2 |
| 20260503031500 | 1 | 146 | 0.0 | 1.6 | 0.00 | 0.00 | 0.08 | 86 | 1017.1 |